Regional Weather Roundup
Issued by NWS

Home | Current Version | Previous Version | Text Only | Print | Product List | Glossary On
Versions: 1 2 3 4 5 6 7 8 9 10 11 12 13 14 15 16 17 18 19 20 21 22 23 24 25 26 27 28 29 30 31 32 33 34 35 36 37 38 39 40 41 42 43 44 45 46 47 48 49 50
000
ASUS43 KOAX 200610
RWRNE

WEATHER ROUNDUP FOR NEBRASKA
NATIONAL WEATHER SERVICE OMAHA NE
1200 AM CST TUE FEB 20 2018

NOTES: SATELLITE DATA IS BEING USED TO AUGMENT CLOUD COVER ABOVE
       12000 FEET.
       "FAIR" INDICATES FEW OR NO CLOUDS BELOW 12,000 FEET WITH NO
       SIGNIFICANT WEATHER AND/OR OBSTRUCTIONS TO VISIBILITY.


NEZ001>004-019>022-054>056-200700-
NEBRASKA PANHANDLE

CITY           SKY/WX    TMP DP  RH WIND       PRES   REMARKS
SCOTTSBLUFF    CLOUDY     0  -6  76 N9        29.88R HAZE    WCI -15
6HR MIN TEMP:   0; 6HR MAX TEMP:   5; 6HR PCP:  0.18;

ALLIANCE       LGT SNOW  -2  -6  83 N12       29.84F FOG     WCI -20
6HR MIN TEMP:  -2; 6HR MAX TEMP:   3; 6HR PCP: TRACE;

CHADRON        CLOUDY     0  -5  79 N9        29.96S WCI -15
6HR MIN TEMP:   0; 6HR MAX TEMP:   2; 6HR PCP: TRACE;

GORDON         CLOUDY     0  -6  77 N12       29.89F WCI -18
6HR MIN TEMP:   0; 6HR MAX TEMP:   2;

KIMBALL        CLOUDY    -1  -6  80 N10       29.79R WCI -18
SIDNEY         LGT SNOW   0  -5  79 N15       29.81R VSB 3/4 WCI -19
6HR MIN TEMP:   0; 6HR MAX TEMP:   6; 6HR PCP: TRACE;

$$

NEZ057>060-069>072-079>082-200700-
SOUTHWEST NEBRASKA

CITY           SKY/WX    TMP DP  RH WIND       PRES   REMARKS
NORTH PLATTE   LGT SNOW   7   2  80 N10       29.89R WCI  -8
6HR MIN TEMP:   7; 6HR MAX TEMP:  11; 6HR PCP:  0.10;

IMPERIAL       FLURRIES   7   3  84 N16       29.87R WCI -11
6HR MIN TEMP:   7; 6HR MAX TEMP:  11; 6HR PCP:  0.08;

LEXINGTON      FLURRIES  12   7  80 N15       29.88R WCI  -4
MCCOOK         CLOUDY    11   7  84 N13       29.89R WCI  -4
6HR MIN TEMP:  11; 6HR MAX TEMP:  16; 6HR PCP: TRACE;

OGALLALA       CLOUDY     7   0  75 N17       29.89R WCI -12
$$

NEZ005>010-023>029-035>040-094-200700-
NORTH CENTRAL NEBRASKA

CITY           SKY/WX    TMP DP  RH WIND       PRES   REMARKS
VALENTINE      LGT SNOW   5  -1  76 N13       29.93R VSB 1   WCI -12
6HR MIN TEMP:   5; 6HR MAX TEMP:   7; 6HR PCP:  0.09;

AINSWORTH      LGT SNOW   6   2  86 N20       29.89F WCI -14
BROKEN BOW     LGT SNOW  10   5  80 N14       29.86R WCI  -6
6HR MIN TEMP:  10; 6HR MAX TEMP:  11; 6HR PCP:  0.01;

O`NEILL        LGT SNOW   9   6  89 N20       29.88S WCI -10
ORD            LGT SNOW  11   7  84 N17G25    29.88R FOG     WCI  -6
6HR MIN TEMP:  11; 6HR MAX TEMP:  12; 6HR PCP: TRACE;

THEDFORD       CLOUDY     6   2  84 N14       29.90R WCI -11
$$

NEZ041-046>049-061>064-073>077-083>087-200700-
SOUTH CENTRAL NEBRASKA

CITY           SKY/WX    TMP DP  RH WIND       PRES   REMARKS
GRAND ISLAND   FLURRIES  14  10  84 N14       29.88R WCI  -1
6HR MIN TEMP:  14; 6HR MAX TEMP:  16; 6HR PCP: TRACE;

AURORA         CLOUDY    15  12  88 N12       29.87R WCI   2
HASTINGS       CLOUDY    14  10  84 N15       29.87R WCI  -1
6HR MIN TEMP:  14; 6HR MAX TEMP:  16; 6HR PCP: TRACE;

HEBRON         CLOUDY    20  19  93 N10       29.86F FOG     WCI   9
HOLDREGE       FLURRIES  12  10  89 N13G20    29.87R WCI  -3
KEARNEY        FLURRIES  12   8  84 N14       29.89R WCI  -3
YORK           CLOUDY    18  18 100 N9        29.86S WCI   6
$$

NEZ011>018-030>034-042>045-200700-
NORTHEAST NEBRASKA

CITY           SKY/WX    TMP DP  RH WIND       PRES   REMARKS
NORFOLK        LGT SNOW  15  13  91 N8G20     29.84S FOG     WCI   4
6HR MIN TEMP:  15; 6HR MAX TEMP:  17; 6HR PCP: TRACE;

ALBION         LGT SNOW  14  11  86 N13       29.84F WCI   0
BLAIR          CLOUDY    22  21  94 N6        29.83R THUNDER FOG
COLUMBUS       FLURRIES  17  15  92 N12       29.87S WCI   4
FREMONT        CLOUDY    21  19  93 N6        29.87R WCI  13
TEKAMAH        CLOUDY    20  17  88 N16       29.85S WCI   6
6HR MIN TEMP:  20; 6HR MAX TEMP:  21; 6HR PCP: TRACE;

WAYNE          LGT SNOW  17  16  96 N10       29.83F WCI   4
$$

NEZ050>053-065>068-078-088>093-200700-
SOUTHEAST NEBRASKA

CITY           SKY/WX    TMP DP  RH WIND       PRES   REMARKS
LINCOLN        LGT SNOW  21  19  92 N9        29.87F VSB 1   WCI  11
6HR MIN TEMP:  20; 6HR MAX TEMP:  21; 6HR PCP:  0.01;

OMAHA EPPLEY   TSTM      23  21  92 N9        29.82F WCI  13
6HR MIN TEMP:  22; 6HR MAX TEMP:  23; 6HR PCP:  0.01;

BEATRICE       CLOUDY    23  21  93 N9        29.83F WCI  13
FALLS CITY     CLOUDY    24  23  96 NW8       29.85R FOG     WCI  15
6HR MIN TEMP:  24; 6HR MAX TEMP:  26; 6HR PCP: TRACE;

NEBRASKA CITY  CLOUDY    24  24 100 NW7       29.85R FOG     WCI  15
PLATTSMOUTH    CLOUDY    23  22  96 NW3       29.83F
$$

NEZ044-045-051>053-067-200700-
OMAHA AREA

CITY           SKY/WX    TMP DP  RH WIND       PRES   REMARKS
OMAHA EPPLEY   TSTM      23  21  92 N9        29.82F WCI  13
6HR MIN TEMP:  22; 6HR MAX TEMP:  23; 6HR PCP:  0.01;

BLAIR          CLOUDY    22  21  94 N6        29.83R THUNDER FOG
FREMONT        CLOUDY    21  19  93 N6        29.87R WCI  13
MILLARD        CLOUDY    24  21  90 NW6       29.84F WCI  17
OFFUTT AFB     HAIL      23  20  91 N5        29.82F FOG     WCI  17
PLATTSMOUTH    CLOUDY    23  22  96 NW3       29.83F
WAHOO          CLOUDY    22  19  91 N9        29.87R WCI  11
$$




USA.gov is the U.S. government's official web portal to all federal, state and local government web resources and services.